Location: *
(45.1961°N, 1.9694°E)
Time: 02:44:50
(UTC+00:00)

Cosmos 2150 Rocket - Pass Details

Date: 25 August 2019
Orbit: 748 x 808 km, 74.0° (Epoch: 23 October)

Event Time Altitude Azimuth Distance (km) Brightness Sun altitude
Exits shadow 20:49:29 32° 176° (S) 1,269 4.8 -20.4°
Maximum altitude 20:51:46 63° 107° (ESE) 843 3.9 -20.7°
Drops below altitude 10° 20:56:55 10° 27° (NNE) 2,304 6.6 -21.4°
Sets 20:59:20 0° 25° (NNE) 3,243 7.5 -21.7°
